Location: house
(32.4460°N, 85.5928°W)
Time: 18:48:33
(UTC-05:00)

BEESAT - Visible Passes

Search period start: 15 October 2019 00:00
Search period end: 25 October 2019 00:00
Orbit: 700 x 709 km, 98.6° (Epoch: 14 October)

Date Brightness Start Highest point End Pass type
(mag) Time Alt. Az. Time Alt. Az. Time Alt. Az.
15 Oct ? 04:24:41 10° ESE 04:28:17 22° ENE 04:31:54 10° NNE visible
15 Oct ? 06:01:35 10° SSW 06:05:47 31° W 06:10:01 10° NW visible
16 Oct ? 05:06:45 10° SSE 05:11:28 64° ENE 05:16:12 10° N visible
16 Oct ? 18:49:22 10° NNW 18:53:25 29° WNW 18:57:28 10° SW visible
17 Oct ? 04:14:34 10° ESE 04:17:33 17° ENE 04:20:31 10° NNE visible
17 Oct ? 05:50:25 10° S 05:54:54 41° W 05:59:25 10° NNW visible
18 Oct ? 04:56:06 10° SSE 05:00:40 47° ENE 05:05:15 10° N visible
18 Oct ? 18:38:16 10° N 18:42:39 38° WNW 18:47:00 10° SW visible
19 Oct ? 04:04:49 10° E 04:06:50 13° ENE 04:08:51 10° NE visible
19 Oct ? 05:39:22 10° S 05:44:02 56° W 05:48:44 10° NNW visible
19 Oct ? 19:23:29 10° NW 19:25:42 13° WNW 19:27:56 10° W visible
20 Oct ? 04:45:33 10° SE 04:49:53 36° ENE 04:54:13 10° N visible
20 Oct ? 18:27:15 10° N 18:31:51 50° WNW 18:36:25 10° SSW visible
21 Oct ? 05:28:25 10° S 05:33:11 75° WSW 05:37:58 10° NNW visible
21 Oct ? 19:11:52 10° NNW 19:14:58 18° WNW 19:18:04 10° WSW visible
22 Oct ? 04:35:06 10° SE 04:39:06 27° ENE 04:43:06 10° NNE visible
22 Oct ? 06:12:52 10° SSW 06:16:44 24° W 06:20:36 10° NW visible
23 Oct ? 05:17:35 10° SSE 05:22:20 82° ENE 05:27:08 10° N visible
23 Oct ? 19:00:32 10° NNW 19:04:14 23° WNW 19:07:55 10° WSW visible
24 Oct ? 04:24:50 10° ESE 04:28:21 21° ENE 04:31:52 10° NNE visible
24 Oct ? 06:01:35 10° SSW 06:05:50 32° W 06:10:06 10° NW visible
